TimeEST,TemperatureF,Dew PointF,Humidity,Sea Level PressureIn,VisibilityMPH,Wind Direction,Wind SpeedMPH,Gust SpeedMPH,PrecipitationIn,Events,Conditions,WindDirDegrees,DateUTC
12:15 AM,33.8,32.0,93,29.89,4.0,WNW,17.3,25.3,N/A,,Overcast,290,2013-12-15 05:15:00
12:35 AM,33.8,32.0,93,29.89,4.0,WNW,20.7,-,N/A,,Overcast,300,2013-12-15 05:35:00
12:55 AM,33.8,32.0,93,29.90,7.0,WNW,16.1,21.9,N/A,,Overcast,300,2013-12-15 05:55:00
1:15 AM,33.8,32.0,93,29.90,10.0,NW,12.7,23.0,N/A,,Overcast,310,2013-12-15 06:15:00
1:35 AM,33.8,32.0,93,29.90,10.0,WNW,12.7,19.6,N/A,,Overcast,300,2013-12-15 06:35:00
1:55 AM,33.8,30.2,87,29.91,10.0,WNW,12.7,18.4,N/A,,Overcast,300,2013-12-15 06:55:00
2:15 AM,33.8,30.2,87,29.92,10.0,WNW,15.0,20.7,N/A,,Overcast,290,2013-12-15 07:15:00
2:35 AM,33.8,32.0,93,29.93,10.0,WNW,13.8,-,N/A,,Overcast,290,2013-12-15 07:35:00
2:55 AM,32.0,32.0,100,29.93,7.0,WNW,12.7,20.7,N/A,,Overcast,290,2013-12-15 07:55:00
3:15 AM,32.0,32.0,100,29.94,7.0,WNW,12.7,23.0,N/A,,Overcast,290,2013-12-15 08:15:00
3:35 AM,32.0,32.0,100,29.95,7.0,WNW,16.1,20.7,N/A,,Overcast,290,2013-12-15 08:35:00
3:55 AM,32.0,30.2,93,29.96,7.0,WNW,12.7,-,N/A,,Overcast,290,2013-12-15 08:55:00
4:15 AM,32.0,30.2,93,29.96,4.0,WNW,12.7,-,N/A,,Overcast,290,2013-12-15 09:15:00
4:35 AM,32.0,30.2,93,29.96,4.0,WNW,10.4,-,N/A,,Overcast,290,2013-12-15 09:35:00
4:55 AM,32.0,30.2,93,29.97,7.0,WNW,8.1,-,N/A,,Overcast,290,2013-12-15 09:55:00
5:15 AM,32.0,30.2,93,29.97,7.0,WNW,12.7,-,N/A,,Overcast,290,2013-12-15 10:15:00
5:35 AM,32.0,28.4,87,29.98,10.0,WNW,16.1,-,N/A,,Overcast,300,2013-12-15 10:35:00
5:55 AM,32.0,28.4,87,29.99,10.0,WNW,12.7,18.4,N/A,,Overcast,290,2013-12-15 10:55:00
6:15 AM,32.0,28.4,87,29.99,10.0,WNW,9.2,-,N/A,,Overcast,300,2013-12-15 11:15:00
6:35 AM,30.2,26.6,86,30.00,10.0,WNW,12.7,16.1,N/A,,Overcast,290,2013-12-15 11:35:00
6:55 AM,30.2,26.6,86,30.01,10.0,WNW,13.8,20.7,N/A,,Overcast,300,2013-12-15 11:55:00
7:15 AM,30.2,26.6,86,30.02,10.0,WNW,11.5,16.1,N/A,,Overcast,300,2013-12-15 12:15:00
7:35 AM,30.2,26.6,86,30.03,10.0,WNW,8.1,-,N/A,,Overcast,290,2013-12-15 12:35:00
7:55 AM,30.2,26.6,86,30.03,10.0,WNW,10.4,-,N/A,,Overcast,290,2013-12-15 12:55:00
8:15 AM,30.2,26.6,86,30.05,10.0,West,10.4,-,N/A,,Overcast,280,2013-12-15 13:15:00
8:35 AM,30.2,26.6,86,30.06,10.0,West,11.5,-,N/A,,Overcast,270,2013-12-15 13:35:00
8:55 AM,30.2,26.6,86,30.06,10.0,West,12.7,-,N/A,,Overcast,280,2013-12-15 13:55:00
9:15 AM,30.2,28.4,93,30.07,4.0,WNW,11.5,17.3,N/A,,Overcast,290,2013-12-15 14:15:00
9:35 AM,30.2,28.4,93,30.08,7.0,West,11.5,-,N/A,,Overcast,280,2013-12-15 14:35:00
9:55 AM,30.2,26.6,86,30.09,7.0,West,11.5,18.4,N/A,,Overcast,280,2013-12-15 14:55:00
10:15 AM,30.2,26.6,86,30.10,10.0,West,12.7,-,N/A,,Overcast,280,2013-12-15 15:15:00
10:35 AM,30.2,26.6,86,30.10,10.0,West,13.8,19.6,N/A,,Overcast,280,2013-12-15 15:35:00
10:55 AM,30.2,26.6,86,30.11,10.0,West,10.4,-,N/A,,Overcast,270,2013-12-15 15:55:00
11:15 AM,30.2,24.8,80,30.11,10.0,West,11.5,-,N/A,,Overcast,280,2013-12-15 16:15:00
11:35 AM,30.2,26.6,86,30.11,10.0,West,13.8,18.4,N/A,,Overcast,280,2013-12-15 16:35:00
11:55 AM,30.2,24.8,80,30.10,10.0,West,15.0,20.7,N/A,,Overcast,280,2013-12-15 16:55:00
12:15 PM,30.2,24.8,80,30.09,10.0,West,12.7,20.7,N/A,,Overcast,270,2013-12-15 17:15:00
12:35 PM,30.2,24.8,80,30.09,10.0,West,12.7,-,N/A,,Overcast,280,2013-12-15 17:35:00
12:55 PM,30.2,24.8,80,30.08,10.0,West,15.0,20.7,N/A,,Overcast,260,2013-12-15 17:55:00
1:15 PM,28.4,24.8,86,30.08,7.0,West,12.7,17.3,N/A,,Overcast,260,2013-12-15 18:15:00
1:35 PM,30.2,24.8,80,30.08,10.0,West,12.7,19.6,N/A,,Overcast,270,2013-12-15 18:35:00
1:55 PM,30.2,24.8,80,30.07,10.0,West,13.8,-,N/A,,Overcast,260,2013-12-15 18:55:00
2:15 PM,30.2,24.8,80,30.07,10.0,West,10.4,-,N/A,,Overcast,260,2013-12-15 19:15:00
2:35 PM,30.2,24.8,80,30.07,10.0,WSW,11.5,16.1,N/A,,Overcast,250,2013-12-15 19:35:00
2:55 PM,30.2,24.8,80,30.08,10.0,West,12.7,-,N/A,,Overcast,260,2013-12-15 19:55:00
3:15 PM,30.2,24.8,80,30.08,10.0,WSW,12.7,16.1,N/A,,Overcast,250,2013-12-15 20:15:00
3:35 PM,30.2,24.8,80,30.10,10.0,West,11.5,17.3,N/A,,Overcast,260,2013-12-15 20:35:00
3:55 PM,30.2,24.8,80,30.10,10.0,West,9.2,-,N/A,,Overcast,260,2013-12-15 20:55:00
4:15 PM,30.2,24.8,80,30.11,10.0,West,10.4,-,N/A,,Overcast,260,2013-12-15 21:15:00
4:35 PM,30.2,24.8,80,30.12,10.0,West,12.7,-,N/A,,Overcast,270,2013-12-15 21:35:00
4:55 PM,30.2,24.8,80,30.13,10.0,WSW,10.4,-,N/A,,Overcast,240,2013-12-15 21:55:00
5:15 PM,30.2,24.8,80,30.14,10.0,WSW,12.7,17.3,N/A,,Overcast,250,2013-12-15 22:15:00
5:35 PM,28.4,23.0,80,30.13,10.0,WSW,10.4,-,N/A,,Overcast,240,2013-12-15 22:35:00
5:55 PM,30.2,24.8,80,30.13,10.0,WSW,10.4,-,N/A,,Overcast,250,2013-12-15 22:55:00
6:15 PM,28.4,24.8,86,30.13,10.0,West,10.4,-,N/A,,Overcast,260,2013-12-15 23:15:00
6:35 PM,28.4,24.8,86,30.13,10.0,WSW,9.2,-,N/A,,Overcast,240,2013-12-15 23:35:00
6:55 PM,28.4,24.8,86,30.13,10.0,WSW,9.2,-,N/A,,Overcast,240,2013-12-15 23:55:00
7:15 PM,28.4,24.8,86,30.13,10.0,SW,9.2,-,N/A,,Overcast,230,2013-12-16 00:15:00
7:35 PM,30.2,24.8,80,30.12,10.0,SW,10.4,-,N/A,,Overcast,230,2013-12-16 00:35:00
7:55 PM,28.4,24.8,86,30.15,10.0,WSW,11.5,-,N/A,,Overcast,250,2013-12-16 00:55:00
8:15 PM,28.4,23.0,80,30.14,10.0,SW,8.1,-,N/A,,Overcast,230,2013-12-16 01:15:00
8:35 PM,28.4,23.0,80,30.14,10.0,WSW,8.1,-,N/A,,Overcast,240,2013-12-16 01:35:00
8:55 PM,28.4,24.8,86,30.14,10.0,WSW,10.4,-,N/A,,Overcast,240,2013-12-16 01:55:00
9:15 PM,28.4,23.0,80,30.14,10.0,WSW,10.4,18.4,N/A,,Overcast,250,2013-12-16 02:15:00
9:35 PM,28.4,24.8,86,30.14,10.0,WSW,9.2,-,N/A,,Overcast,240,2013-12-16 02:35:00
9:55 PM,28.4,24.8,86,30.14,10.0,SW,10.4,-,N/A,,Overcast,230,2013-12-16 02:55:00
10:15 PM,28.4,24.8,86,30.13,10.0,SW,8.1,-,N/A,,Overcast,220,2013-12-16 03:15:00
10:35 PM,28.4,24.8,86,30.14,10.0,SW,8.1,-,N/A,,Overcast,230,2013-12-16 03:35:00
10:55 PM,30.2,24.8,80,30.15,10.0,WSW,5.8,-,N/A,,Overcast,240,2013-12-16 03:55:00
11:15 PM,30.2,24.8,80,30.14,10.0,WSW,6.9,-,N/A,,Overcast,240,2013-12-16 04:15:00
11:35 PM,30.2,24.8,80,30.14,10.0,SW,6.9,-,N/A,,Overcast,230,2013-12-16 04:35:00
11:55 PM,30.2,24.8,80,30.14,10.0,WSW,6.9,-,N/A,,Overcast,240,2013-12-16 04:55:00